Meteo Giornale » Osservazioni meteo Argentina » Corrientes Aero
ore: 13:00 - Osservazioni Meteo Corrientes Aero
Lat. 27° 27' S Lon. 58° 46' W Alt. 62 metri s.l.m.
20 °C
Coperto
Temp. 24 Ore
16 °C
20 °C
Ovest/Sud-Ovest
16.7 Km/h
Dew point 18 °C
Umidità 88 %
Visibilità 8 Km
Il sole sorge alle ore 07:09
Il sole tramonta alle ore 18:41
| Data e Ora | Cielo e Fenomeni | T °C | DP °C | Um. % | Pres. hPa | Vis. km | Vento km/h | |
|---|---|---|---|---|---|---|---|---|
| Oggi h: 13:00 | Coperto | 20 | 18 | 88 | 1009 | 8 | O/SO 16.7 | |
| Oggi h: 12:00 | Coperto | 19 | 18 | 93 | 1009 | 8 | O/SO 13 | |
| Oggi h: 11:00 | Foschia | 19 | 18 | 93 | 1009 | 4 | SO 11.1 | |
| Oggi h: 10:00 | Foschia | 18 | 18 | 100 | 1009 | 2 | O/SO 14.8 | |
| Oggi h: 09:00 | Foschia | 18 | 18 | 100 | 1008 | 3 | SO 11.1 | |
| Oggi h: 08:00 | Foschia | 18 | 17 | 93 | 1007 | 2 | N 5.5 | |
| Oggi h: 07:25 | Foschia | 17 | 17 | 100 | 1007 | 2 | N 5.5 | |
| Oggi h: 07:00 | Nebbia | 17 | 17 | 100 | 1007 | 0.7 | N 3.7 | |
| Oggi h: 06:00 | Nebbia | 17 | 15 | 88 | 1006 | 0.9 | N 3.7 | |
| Oggi h: 05:00 | Nebbia | 16 | 16 | 100 | 1007 | 0.1 | E/SE 9.3 | |
| Oggi h: 04:00 | Coperto | 16 | 15 | 93 | 1008 | 10 | N 3.7 | |
| Oggi h: 03:00 | Sereno | 17 | 16 | 93 | 1008 | 10 | N 3.7 | |
| Oggi h: 02:00 | Nuvoloso | 18 | 17 | 93 | 1010 | 10 | N 3.7 | |
| Oggi h: 01:00 | Coperto | 18 | 17 | 93 | 1010 | 10 | E/SE 16.7 | |
| Oggi h: 00:00 | Coperto | 18 | 17 | 93 | 1011 | 10 | N 0 | |
| Ieri h: 23:00 | Coperto | 18 | 17 | 93 | 1011 | 10 | N 3.7 | |
| Ieri h: 22:00 | Coperto | 19 | 17 | 88 | 1010 | 10 | N 3.7 | |
| Ieri h: 21:00 | Coperto | 19 | 17 | 88 | 1010 | 10 | N 1.8 | |
| Ieri h: 20:00 | Coperto | 19 | 17 | 88 | 1009 | 10 | N 5.5 | |
| Ieri h: 19:00 | Coperto | 19 | 16 | 82 | 1009 | 10 | N 5.5 | |
| Ieri h: 18:00 | Coperto | 19 | 16 | 82 | 1009 | 10 | S 7.4 | |
| Ieri h: 17:00 | Coperto | 19 | 16 | 82 | 1009 | 10 | S 9.3 | |
| Ieri h: 16:00 | Coperto | 20 | 16 | 77 | 1009 | 10 | S/SO 7.4 | |
| Ieri h: 15:00 | Coperto | 19 | 16 | 82 | 1010 | 10 | S 7.4 | |
| Ieri h: 14:00 | Coperto | 19 | 16 | 82 | 1010 | 10 | S 7.4 | |



